User: anonymous   Login
Location: Unspecified
(0.0000°N, 0.0000°E)
Time: 15:25:47
(UTC+00:00)
Language:

OPAL - Orbit

View from above orbital plane
View from above orbital plane
View from above satellite
View from above satellite

Ground track
Ground track

The orbit data is extracted from the following two-line orbital elements,

1 26063U 00004C   17228.53080262 -.00000013  00000-0  15451-4 0  9992
2 26063 100.2289 243.3788 0036984 137.7784 222.6254 14.36670518920042
Epoch (UTC): 16 August 2017 12:44:21
Eccentricity: 0.0036984
inclination: 100.2289°
perigee height: 743 km
apogee height: 796 km
right ascension of ascending node: 243.3788°
argument of perigee: 137.7784°
revolutions per day: 14.36670518
mean anomaly at epoch: 222.6254°
orbit number at epoch: 92004

The dashed part of the orbit path shows where the satellite is in the earth's shadow,  

DLR